Data No.,UTC Date,UTC Time,Latitude,Longitude,Course(deg),Temp(degC),Sal(psu)
46,2014/11/15,21:56:00,00-29.1800N,118-00.1400E,81,29.621,33.6795
47,2014/11/15,21:57:00,00-29.2100N,118-00.3400E,82,29.613,33.7477
48,2014/11/15,21:58:00,00-29.2300N,118-00.5400E,81,29.596,33.759
49,2014/11/15,21:59:00,00-29.2600N,118-00.7400E,80,29.643,33.7448
50,2014/11/15,22:00:00,00-29.3000N,118-00.9400E,80,29.696,33.7397
51,2014/11/15,22:01:00,00-29.3300N,118-01.1400E,80,29.653,33.755
52,2014/11/15,22:02:00,00-29.3700N,118-01.3400E,78,29.66,33.7666
53,2014/11/15,22:03:00,00-29.4100N,118-01.5400E,77,29.636,33.7569
54,2014/11/15,22:04:00,00-29.4500N,118-01.7400E,78,29.657,33.7484
55,2014/11/15,22:05:00,00-29.4900N,118-01.9400E,79,29.673,33.7311
56,2014/11/15,22:06:00,00-29.5200N,118-02.1400E,80,29.728,33.7413
57,2014/11/15,22:07:00,00-29.5600N,118-02.3400E,79,29.817,33.743
58,2014/11/15,22:08:00,00-29.6000N,118-02.5400E,77,29.863,33.761
59,2014/11/15,22:09:00,00-29.6500N,118-02.7400E,76,29.885,33.7778
60,2014/11/15,22:10:00,00-29.6900N,118-02.9500E,78,29.755,33.7985
61,2014/11/15,22:11:00,00-29.7300N,118-03.1500E,80,29.68,33.8103
62,2014/11/15,22:12:00,00-29.7600N,118-03.3500E,81,29.617,33.7909
63,2014/11/15,22:13:00,00-29.8000N,118-03.5500E,79,29.656,33.7753
64,2014/11/15,22:14:00,00-29.8400N,118-03.7400E,78,29.796,33.7559
65,2014/11/15,22:15:00,00-29.8800N,118-03.9400E,77,29.815,33.7655
66,2014/11/15,22:16:00,00-29.9200N,118-04.1400E,79,29.805,33.7371
67,2014/11/15,22:17:00,00-29.9500N,118-04.3400E,80,29.775,33.7375
68,2014/11/15,22:18:00,00-29.9900N,118-04.5400E,79,29.726,33.7029
69,2014/11/15,22:19:00,00-30.0300N,118-04.7400E,79,29.726,33.6397
70,2014/11/15,22:20:00,00-30.0700N,118-04.9400E,78,29.649,33.6491
71,2014/11/15,22:21:00,00-30.1000N,118-05.1400E,79,29.592,33.7526
72,2014/11/15,22:22:00,00-30.1400N,118-05.3400E,79,29.587,33.7991
73,2014/11/15,22:23:00,00-30.1800N,118-05.5400E,79,29.598,33.8004
74,2014/11/15,22:24:00,00-30.2200N,118-05.7400E,78,29.623,33.7983
75,2014/11/15,22:25:00,00-30.2600N,118-05.9400E,78,29.63,33.7972
76,2014/11/15,22:26:00,00-30.3000N,118-06.1400E,78,29.591,33.7843
77,2014/11/15,22:27:00,00-30.3400N,118-06.3500E,78,29.568,33.7863
78,2014/11/15,22:28:00,00-30.3800N,118-06.5400E,78,29.552,33.7888
79,2014/11/15,22:29:00,00-30.4200N,118-06.7500E,78,29.542,33.7959
80,2014/11/15,22:30:00,00-30.4600N,118-06.9600E,79,29.617,33.7974
81,2014/11/15,22:31:00,00-30.5000N,118-07.1700E,78,29.656,33.8077
82,2014/11/15,22:32:00,00-30.5400N,118-07.3600E,78,29.639,33.7985
83,2014/11/15,22:33:00,00-30.5800N,118-07.5700E,79,29.623,33.8057
84,2014/11/15,22:34:00,00-30.6200N,118-07.7700E,78,29.634,33.8087
85,2014/11/15,22:35:00,00-30.6600N,118-07.9700E,78,29.612,33.8093
86,2014/11/15,22:36:00,00-30.7000N,118-08.1700E,78,29.606,33.8078
87,2014/11/15,22:37:00,00-30.7400N,118-08.3600E,78,29.613,33.8046
88,2014/11/15,22:38:00,00-30.7800N,118-08.5600E,77,29.599,33.8121
89,2014/11/15,22:39:00,00-30.8200N,118-08.7600E,79,29.603,33.8152
90,2014/11/15,22:40:00,00-30.8600N,118-08.9700E,80,29.59,33.8147
91,2014/11/15,22:41:00,00-30.9000N,118-09.1700E,79,29.598,33.8139
92,2014/11/15,22:42:00,00-30.9300N,118-09.3600E,78,29.606,33.8032
93,2014/11/15,22:43:00,00-30.9800N,118-09.5700E,78,29.619,33.8001
94,2014/11/15,22:44:00,00-31.0200N,118-09.7700E,78,29.601,33.8108
95,2014/11/15,22:45:00,00-31.0500N,118-09.9700E,79,29.563,33.8228
96,2014/11/15,22:46:00,00-31.0900N,118-10.1700E,78,29.553,33.8279
97,2014/11/15,22:47:00,00-31.1300N,118-10.3700E,78,29.525,33.8181
98,2014/11/15,22:48:00,00-31.1700N,118-10.5700E,78,29.524,33.8035
99,2014/11/15,22:49:00,00-31.2100N,118-10.7800E,79,29.491,33.8073
100,2014/11/15,22:50:00,00-31.2500N,118-10.9800E,79,29.486,33.788
101,2014/11/15,22:51:00,00-31.2900N,118-11.1900E,78,29.499,33.7823
102,2014/11/15,22:52:00,00-31.3400N,118-11.3900E,77,29.498,33.7662
103,2014/11/15,22:53:00,00-31.3800N,118-11.5900E,77,29.495,33.7693
104,2014/11/15,22:54:00,00-31.4200N,118-11.8000E,79,29.5,33.7914
105,2014/11/15,22:55:00,00-31.4600N,118-12.0000E,80,29.517,33.8053
106,2014/11/15,22:56:00,00-31.4900N,118-12.2100E,80,29.523,33.8008
107,2014/11/15,22:57:00,00-31.5300N,118-12.4000E,79,29.478,33.7991
108,2014/11/15,22:58:00,00-31.5700N,118-12.6100E,78,29.493,33.7979
109,2014/11/15,22:59:00,00-31.6100N,118-12.8000E,77,29.52,33.7945
110,2014/11/15,23:00:00,00-31.6600N,118-13.0100E,78,29.516,33.827
111,2014/11/15,23:01:00,00-31.7000N,118-13.2100E,78,29.525,33.8436
112,2014/11/15,23:02:00,00-31.7400N,118-13.4100E,78,29.506,33.8726
113,2014/11/15,23:03:00,00-31.7800N,118-13.6100E,78,29.508,33.8581
114,2014/11/15,23:04:00,00-31.8200N,118-13.8100E,78,29.527,33.8724
115,2014/11/15,23:05:00,00-31.8600N,118-14.0200E,78,29.509,33.8855
116,2014/11/15,23:06:00,00-31.9000N,118-14.2200E,77,29.487,33.8948
117,2014/11/15,23:07:00,00-31.9500N,118-14.4200E,77,29.496,33.8627
118,2014/11/15,23:08:00,00-31.9900N,118-14.6200E,78,29.501,33.8603
119,2014/11/15,23:09:00,00-32.0300N,118-14.8200E,80,29.511,33.864
120,2014/11/15,23:10:00,00-32.0600N,118-15.0200E,80,29.517,33.874
121,2014/11/15,23:11:00,00-32.1000N,118-15.2300E,79,29.558,33.8725
122,2014/11/15,23:12:00,00-32.1500N,118-15.4400E,78,29.535,33.8555
123,2014/11/15,23:13:00,00-32.1900N,118-15.6400E,78,29.532,33.8529
124,2014/11/15,23:14:00,00-32.2300N,118-15.8400E,78,29.549,33.8665
125,2014/11/15,23:15:00,00-32.2700N,118-16.0400E,78,29.549,33.8588
126,2014/11/15,23:16:00,00-32.3100N,118-16.2400E,78,29.571,33.8598
127,2014/11/15,23:17:00,00-32.3500N,118-16.4300E,79,29.583,33.8852
128,2014/11/15,23:18:00,00-32.3900N,118-16.6300E,79,29.604,33.8979
129,2014/11/15,23:19:00,00-32.4300N,118-16.8300E,78,29.601,33.9195
130,2014/11/15,23:20:00,00-32.4700N,118-17.0300E,79,29.586,33.9185
131,2014/11/15,23:21:00,00-32.5000N,118-17.2300E,79,29.592,33.8917
132,2014/11/15,23:22:00,00-32.5400N,118-17.4200E,78,29.584,33.8455
133,2014/11/15,23:23:00,00-32.5800N,118-17.6200E,79,29.604,33.8523
134,2014/11/15,23:24:00,00-32.6200N,118-17.8200E,78,29.602,33.8308
135,2014/11/15,23:25:00,00-32.6600N,118-18.0200E,78,29.614,33.8463
136,2014/11/15,23:26:00,00-32.7000N,118-18.2200E,78,29.616,33.8716
137,2014/11/15,23:27:00,00-32.7500N,118-18.4200E,77,29.62,33.8817
138,2014/11/15,23:28:00,00-32.7900N,118-18.6200E,78,29.637,33.8942
139,2014/11/15,23:29:00,00-32.8200N,118-18.8200E,80,29.689,33.8731
140,2014/11/15,23:30:00,00-32.8600N,118-19.0200E,79,29.745,33.8612
141,2014/11/15,23:31:00,00-32.9000N,118-19.2200E,78,29.711,33.8539
142,2014/11/15,23:32:00,00-32.9400N,118-19.4200E,78,29.668,33.8601
143,2014/11/15,23:33:00,00-32.9800N,118-19.6400E,78,29.636,33.8581
144,2014/11/15,23:34:00,00-33.0300N,118-19.8400E,77,29.642,33.8706
145,2014/11/15,23:35:00,00-33.0700N,118-20.0400E,78,29.655,33.8736
146,2014/11/15,23:36:00,00-33.1100N,118-20.2400E,78,29.673,33.8749
147,2014/11/15,23:37:00,00-33.1500N,118-20.4400E,77,29.671,33.8731
148,2014/11/15,23:38:00,00-33.2000N,118-20.6400E,77,29.673,33.8741
149,2014/11/15,23:39:00,00-33.2400N,118-20.8400E,77,29.723,33.8863
150,2014/11/15,23:40:00,00-33.2800N,118-21.0400E,77,29.776,33.8865
151,2014/11/15,23:41:00,00-33.3300N,118-21.2400E,78,29.837,33.8869
152,2014/11/15,23:42:00,00-33.3700N,118-21.4400E,79,29.878,33.882
153,2014/11/15,23:43:00,00-33.4100N,118-21.6400E,78,29.823,33.8706
154,2014/11/15,23:44:00,00-33.4500N,118-21.8400E,77,29.85,33.8803
155,2014/11/15,23:45:00,00-33.4900N,118-22.0400E,77,29.79,33.8779
156,2014/11/15,23:46:00,00-33.5300N,118-22.2400E,79,29.753,33.8653
157,2014/11/15,23:47:00,00-33.5700N,118-22.4400E,78,29.699,33.8591
158,2014/11/15,23:48:00,00-33.6200N,118-22.6400E,77,29.698,33.8448
159,2014/11/15,23:49:00,00-33.6600N,118-22.8400E,77,29.591,33.8273
160,2014/11/15,23:50:00,00-33.7000N,118-23.0400E,78,29.597,33.7878
161,2014/11/15,23:51:00,00-33.7400N,118-23.2400E,79,29.622,33.769
162,2014/11/15,23:52:00,00-33.7800N,118-23.4400E,79,29.674,33.7567
163,2014/11/15,23:53:00,00-33.8200N,118-23.6400E,78,29.705,33.7576
164,2014/11/15,23:54:00,00-33.8600N,118-23.8500E,78,29.761,33.7713
165,2014/11/15,23:55:00,00-33.9000N,118-24.0500E,79,29.813,33.7949
166,2014/11/15,23:56:00,00-33.9500N,118-24.2400E,71,29.859,33.825
167,2014/11/15,23:57:00,00-34.0500N,118-24.4000E,50,29.862,33.8205
168,2014/11/15,23:58:00,00-34.1800N,118-24.5400E,46,29.821,33.8405
169,2014/11/15,23:59:00,00-34.3100N,118-24.6800E,47,29.688,33.852
170,2014/11/16,0:00:00,00-34.4300N,118-24.8200E,52,29.764,33.8924
171,2014/11/16,0:01:00,00-34.5100N,118-24.9800E,69,29.886,33.895
172,2014/11/16,0:02:00,00-34.5400N,118-25.1500E,83,29.898,33.8412
173,2014/11/16,0:03:00,00-34.5500N,118-25.3300E,85,29.824,33.7948
174,2014/11/16,0:04:00,00-34.5600N,118-25.5100E,85,29.719,33.8065
175,2014/11/16,0:05:00,00-34.5800N,118-25.7000E,85,29.711,33.8815
176,2014/11/16,0:06:00,00-34.6000N,118-25.8900E,85,29.743,33.8967
177,2014/11/16,0:07:00,00-34.6100N,118-26.0900E,84,29.776,33.8952
178,2014/11/16,0:08:00,00-34.6300N,118-26.2800E,84,29.745,33.8895
179,2014/11/16,0:09:00,00-34.6500N,118-26.4900E,85,29.742,33.8865
180,2014/11/16,0:10:00,00-34.6600N,118-26.6900E,85,29.791,33.881
181,2014/11/16,0:11:00,00-34.6800N,118-26.8800E,85,29.774,33.8667
182,2014/11/16,0:12:00,00-34.7000N,118-27.0800E,84,29.776,33.8617
183,2014/11/16,0:13:00,00-34.7200N,118-27.2800E,84,29.788,33.8697
184,2014/11/16,0:14:00,00-34.7400N,118-27.4800E,84,29.749,33.8713
185,2014/11/16,0:15:00,00-34.7600N,118-27.6800E,84,29.741,33.87
186,2014/11/16,0:16:00,00-34.7800N,118-27.8800E,85,29.757,33.8529
187,2014/11/16,0:17:00,00-34.7900N,118-28.0900E,85,29.742,33.8451
188,2014/11/16,0:18:00,00-34.8100N,118-28.2800E,82,29.798,33.8323
189,2014/11/16,0:19:00,00-34.8500N,118-28.4800E,78,29.815,33.8093
190,2014/11/16,0:20:00,00-34.8900N,118-28.6800E,78,29.807,33.7934
191,2014/11/16,0:21:00,00-34.9300N,118-28.8800E,80,29.814,33.7893
192,2014/11/16,0:22:00,00-34.9600N,118-29.0800E,80,29.802,33.8026
193,2014/11/16,0:23:00,00-34.9900N,118-29.2700E,79,29.848,33.8323
194,2014/11/16,0:24:00,00-35.0300N,118-29.4700E,78,29.823,33.8446
195,2014/11/16,0:25:00,00-35.0700N,118-29.6700E,78,29.827,33.8506
196,2014/11/16,0:26:00,00-35.1100N,118-29.8700E,78,29.846,33.8576
197,2014/11/16,0:27:00,00-35.1500N,118-30.0600E,79,29.908,33.8616
198,2014/11/16,0:28:00,00-35.1900N,118-30.2700E,80,29.946,33.8611
199,2014/11/16,0:29:00,00-35.2200N,118-30.4700E,80,29.964,33.8583
200,2014/11/16,0:30:00,00-35.2600N,118-30.6800E,79,29.941,33.8602
201,2014/11/16,0:31:00,00-35.3000N,118-30.8700E,78,29.905,33.8642
202,2014/11/16,0:32:00,00-35.3300N,118-31.0700E,79,29.882,33.865
203,2014/11/16,0:33:00,00-35.3700N,118-31.2700E,81,29.804,33.8561
204,2014/11/16,0:34:00,00-35.4000N,118-31.4800E,81,29.877,33.8038
205,2014/11/16,0:35:00,00-35.4300N,118-31.6700E,79,29.922,33.8195
206,2014/11/16,0:36:00,00-35.4700N,118-31.8600E,78,29.905,33.8589
207,2014/11/16,0:37:00,00-35.5100N,118-32.0600E,78,29.821,33.8661
208,2014/11/16,0:38:00,00-35.5400N,118-32.2700E,80,29.789,33.8418
209,2014/11/16,0:39:00,00-35.5700N,118-32.4600E,83,29.739,33.8234
210,2014/11/16,0:40:00,00-35.5900N,118-32.6700E,84,29.769,33.7773
211,2014/11/16,0:41:00,00-35.6100N,118-32.8700E,81,29.802,33.7934
212,2014/11/16,0:42:00,00-35.6500N,118-33.0600E,79,29.835,33.8069
213,2014/11/16,0:43:00,00-35.6900N,118-33.2600E,77,29.808,33.8067
214,2014/11/16,0:44:00,00-35.7300N,118-33.4600E,78,29.694,33.8018
215,2014/11/16,0:45:00,00-35.7700N,118-33.6500E,80,29.766,33.7908
216,2014/11/16,0:46:00,00-35.8000N,118-33.8600E,82,29.751,33.7906
217,2014/11/16,0:47:00,00-35.8200N,118-34.0600E,82,29.712,33.7915
218,2014/11/16,0:48:00,00-35.8500N,118-34.2600E,79,29.705,33.7841
219,2014/11/16,0:49:00,00-35.9000N,118-34.4500E,77,29.673,33.766
220,2014/11/16,0:50:00,00-35.9400N,118-34.6600E,77,29.603,33.7582
221,2014/11/16,0:51:00,00-35.9800N,118-34.8600E,77,29.567,33.7641
222,2014/11/16,0:52:00,00-36.0300N,118-35.0500E,78,29.538,33.7653
223,2014/11/16,0:53:00,00-36.0600N,118-35.2500E,79,29.52,33.7628
224,2014/11/16,0:54:00,00-36.1000N,118-35.4400E,78,29.521,33.7606
225,2014/11/16,0:55:00,00-36.1400N,118-35.6400E,78,29.524,33.7659
226,2014/11/16,0:56:00,00-36.1800N,118-35.8300E,78,29.538,33.7712
227,2014/11/16,0:57:00,00-36.2100N,118-36.0300E,79,29.558,33.7774
228,2014/11/16,0:58:00,00-36.2500N,118-36.2200E,82,29.568,33.787
229,2014/11/16,0:59:00,00-36.2600N,118-36.4200E,88,29.588,33.7897
230,2014/11/16,1:00:00,00-36.2500N,118-36.6100E,91,29.598,33.7915
231,2014/11/16,1:01:00,00-36.2500N,118-36.8100E,88,29.626,33.7899
232,2014/11/16,1:02:00,00-36.2600N,118-37.0000E,86,29.643,33.7917
233,2014/11/16,1:03:00,00-36.2800N,118-37.2000E,86,29.651,33.8014
234,2014/11/16,1:04:00,00-36.2900N,118-37.4000E,87,29.665,33.8079
235,2014/11/16,1:05:00,00-36.2900N,118-37.6000E,89,29.649,33.8166
236,2014/11/16,1:06:00,00-36.2900N,118-37.8000E,88,29.63,33.8198
237,2014/11/16,1:07:00,00-36.3000N,118-38.0000E,87,29.631,33.8203
238,2014/11/16,1:08:00,00-36.3100N,118-38.1900E,86,29.623,33.8211
239,2014/11/16,1:09:00,00-36.3200N,118-38.3900E,86,29.622,33.8223
240,2014/11/16,1:10:00,00-36.3300N,118-38.5900E,86,29.595,33.8257
241,2014/11/16,1:11:00,00-36.3400N,118-38.8000E,87,29.576,33.8402
242,2014/11/16,1:12:00,00-36.3500N,118-39.0100E,88,29.565,33.8479
243,2014/11/16,1:13:00,00-36.3500N,118-39.2000E,87,29.562,33.8504
244,2014/11/16,1:14:00,00-36.3700N,118-39.4000E,86,29.606,33.8598
245,2014/11/16,1:15:00,00-36.3800N,118-39.6000E,85,29.61,33.8457
246,2014/11/16,1:16:00,00-36.4000N,118-39.8000E,86,29.573,33.84
247,2014/11/16,1:17:00,00-36.4000N,118-40.0000E,88,29.581,33.8415
248,2014/11/16,1:18:00,00-36.4000N,118-40.2100E,90,29.562,33.8377
249,2014/11/16,1:19:00,00-36.4000N,118-40.4000E,88,29.589,33.839
250,2014/11/16,1:20:00,00-36.4200N,118-40.6100E,84,29.668,33.8315
251,2014/11/16,1:21:00,00-36.4400N,118-40.8000E,82,29.625,33.8261
252,2014/11/16,1:22:00,00-36.4600N,118-41.0100E,84,29.57,33.8172
253,2014/11/16,1:23:00,00-36.4700N,118-41.2100E,87,29.559,33.8156
254,2014/11/16,1:24:00,00-36.4900N,118-41.4200E,85,29.575,33.8175
255,2014/11/16,1:25:00,00-36.5100N,118-41.6200E,84,29.629,33.8192
256,2014/11/16,1:26:00,00-36.5300N,118-41.8200E,83,29.604,33.8107
257,2014/11/16,1:27:00,00-36.5500N,118-42.0200E,84,29.598,33.8064
258,2014/11/16,1:28:00,00-36.5700N,118-42.2300E,84,29.598,33.8048
259,2014/11/16,1:29:00,00-36.5800N,118-42.4300E,85,29.596,33.8038
260,2014/11/16,1:30:00,00-36.6000N,118-42.6400E,85,29.601,33.8054
261,2014/11/16,1:31:00,00-36.6200N,118-42.8500E,84,29.612,33.8074
262,2014/11/16,1:32:00,00-36.6400N,118-43.0700E,85,29.615,33.8069
263,2014/11/16,1:33:00,00-36.6500N,118-43.2700E,85,29.604,33.8081
264,2014/11/16,1:34:00,00-36.6700N,118-43.4800E,84,29.626,33.8052
265,2014/11/16,1:35:00,00-36.7100N,118-43.6800E,77,29.644,33.8028
266,2014/11/16,1:36:00,00-36.7700N,118-43.8700E,68,29.659,33.8019
267,2014/11/16,1:37:00,00-36.8600N,118-44.0500E,63,29.659,33.8016
268,2014/11/16,1:38:00,00-36.9600N,118-44.2300E,59,29.675,33.8003
269,2014/11/16,1:39:00,00-37.0700N,118-44.3900E,55,29.702,33.8
270,2014/11/16,1:40:00,00-37.1900N,118-44.5600E,54,29.653,33.7999
271,2014/11/16,1:41:00,00-37.3000N,118-44.7300E,56,29.642,33.7903
272,2014/11/16,1:42:00,00-37.4100N,118-44.8900E,56,29.662,33.7783
273,2014/11/16,1:43:00,00-37.5200N,118-45.0600E,56,29.671,33.7782
274,2014/11/16,1:44:00,00-37.6400N,118-45.2300E,55,29.657,33.7712
275,2014/11/16,1:45:00,00-37.7600N,118-45.4000E,54,29.676,33.7701
276,2014/11/16,1:46:00,00-37.8800N,118-45.5700E,54,29.657,33.7688
277,2014/11/16,1:47:00,00-38.0000N,118-45.7300E,53,29.603,33.7638
278,2014/11/16,1:48:00,00-38.1200N,118-45.8900E,54,29.586,33.7717
279,2014/11/16,1:49:00,00-38.2400N,118-46.0600E,54,29.573,33.7807
280,2014/11/16,1:50:00,00-38.3600N,118-46.2300E,55,29.574,33.7762
281,2014/11/16,1:51:00,00-38.4800N,118-46.4000E,54,29.561,33.7853
282,2014/11/16,1:52:00,00-38.5900N,118-46.5600E,54,29.503,33.8007
283,2014/11/16,1:53:00,00-38.7200N,118-46.7400E,54,29.44,33.81
284,2014/11/16,1:54:00,00-38.8500N,118-46.9100E,53,29.481,33.8139
285,2014/11/16,1:55:00,00-38.9700N,118-47.0700E,53,29.472,33.8127
286,2014/11/16,1:56:00,00-39.0900N,118-47.2300E,54,29.392,33.8113
287,2014/11/16,1:57:00,00-39.2000N,118-47.4000E,55,29.407,33.8142
288,2014/11/16,1:58:00,00-39.3200N,118-47.5700E,54,29.454,33.8151
289,2014/11/16,1:59:00,00-39.4400N,118-47.7300E,53,29.554,33.8097
290,2014/11/16,2:00:00,00-39.5700N,118-47.8900E,51,29.586,33.7842
291,2014/11/16,2:01:00,00-39.7000N,118-48.0500E,51,29.557,33.762
292,2014/11/16,2:02:00,00-39.8200N,118-48.2100E,53,29.543,33.7729
293,2014/11/16,2:03:00,00-39.9300N,118-48.3700E,56,29.552,33.7912
294,2014/11/16,2:04:00,00-40.0400N,118-48.5400E,57,29.545,33.7833
295,2014/11/16,2:05:00,00-40.1500N,118-48.7100E,56,29.584,33.7633
296,2014/11/16,2:06:00,00-40.2700N,118-48.8700E,52,29.656,33.7571
297,2014/11/16,2:07:00,00-40.4100N,118-49.0300E,49,29.674,33.757
298,2014/11/16,2:08:00,00-40.5400N,118-49.1800E,48,29.629,33.7609
299,2014/11/16,2:09:00,00-40.6700N,118-49.3400E,50,29.618,33.7616
300,2014/11/16,2:10:00,00-40.7900N,118-49.5000E,57,29.637,33.7633
301,2014/11/16,2:11:00,00-40.8800N,118-49.6800E,61,29.596,33.7636
302,2014/11/16,2:12:00,00-40.9900N,118-49.8600E,59,29.616,33.7647
303,2014/11/16,2:13:00,00-41.1000N,118-50.0300E,55,29.643,33.7651
304,2014/11/16,2:14:00,00-41.2200N,118-50.2100E,56,29.58,33.7652
305,2014/11/16,2:15:00,00-41.3300N,118-50.3800E,58,29.599,33.7673
306,2014/11/16,2:16:00,00-41.4400N,118-50.5600E,59,29.654,33.772
307,2014/11/16,2:17:00,00-41.5500N,118-50.7300E,57,29.719,33.7676
308,2014/11/16,2:18:00,00-41.6700N,118-50.9000E,55,29.659,33.7634
309,2014/11/16,2:19:00,00-41.7800N,118-51.0700E,55,29.613,33.7602
310,2014/11/16,2:20:00,00-41.9000N,118-51.2400E,55,29.596,33.7655
311,2014/11/16,2:21:00,00-42.0100N,118-51.4200E,57,29.559,33.7738
312,2014/11/16,2:22:00,00-42.1300N,118-51.5900E,57,29.643,33.7896
313,2014/11/16,2:23:00,00-42.2400N,118-51.7600E,56,29.657,33.7765
314,2014/11/16,2:24:00,00-42.3600N,118-51.9400E,55,29.637,33.7713
315,2014/11/16,2:25:00,00-42.4800N,118-52.1100E,55,29.639,33.7643
316,2014/11/16,2:26:00,00-42.6000N,118-52.2700E,55,29.653,33.7649
317,2014/11/16,2:27:00,00-42.7200N,118-52.4500E,57,29.642,33.7653
318,2014/11/16,2:28:00,00-42.8300N,118-52.6300E,58,29.654,33.7682
319,2014/11/16,2:29:00,00-42.9400N,118-52.8000E,57,29.712,33.7697
320,2014/11/16,2:30:00,00-43.0500N,118-52.9800E,56,29.565,33.7703
321,2014/11/16,2:31:00,00-43.1700N,118-53.1500E,55,29.541,33.7763
322,2014/11/16,2:32:00,00-43.2900N,118-53.3200E,57,29.496,33.7851
323,2014/11/16,2:33:00,00-43.4000N,118-53.5000E,56,29.567,33.79
324,2014/11/16,2:34:00,00-43.5300N,118-53.6800E,56,29.482,33.7854
325,2014/11/16,2:35:00,00-43.6400N,118-53.8500E,56,29.433,33.7875
326,2014/11/16,2:36:00,00-43.7600N,118-54.0200E,56,29.448,33.7785
327,2014/11/16,2:37:00,00-43.8700N,118-54.2000E,57,29.427,33.784
328,2014/11/16,2:38:00,00-43.9800N,118-54.3700E,57,29.486,33.7791
329,2014/11/16,2:39:00,00-44.0900N,118-54.5500E,56,29.611,33.7845
330,2014/11/16,2:40:00,00-44.2100N,118-54.7100E,54,29.661,33.7814
331,2014/11/16,2:41:00,00-44.3300N,118-54.8800E,54,29.653,33.7725
332,2014/11/16,2:42:00,00-44.4500N,118-55.0500E,54,29.562,33.7718
333,2014/11/16,2:43:00,00-44.5700N,118-55.2200E,56,29.597,33.7724
334,2014/11/16,2:44:00,00-44.6800N,118-55.4000E,57,29.595,33.7698
335,2014/11/16,2:45:00,00-44.8000N,118-55.5700E,56,29.592,33.7627
336,2014/11/16,2:46:00,00-44.9200N,118-55.7400E,54,29.6,33.7464
337,2014/11/16,2:47:00,00-45.0400N,118-55.9100E,54,29.586,33.7403
338,2014/11/16,2:48:00,00-45.1600N,118-56.0800E,54,29.588,33.7408
339,2014/11/16,2:49:00,00-45.2800N,118-56.2500E,56,29.622,33.7454
340,2014/11/16,2:50:00,00-45.3900N,118-56.4300E,56,29.705,33.742
341,2014/11/16,2:51:00,00-45.5100N,118-56.6000E,55,29.794,33.7429
342,2014/11/16,2:52:00,00-45.6300N,118-56.7700E,55,29.684,33.742
343,2014/11/16,2:53:00,00-45.7500N,118-56.9400E,55,29.729,33.735
344,2014/11/16,2:54:00,00-45.8700N,118-57.1200E,55,29.689,33.7338
345,2014/11/16,2:55:00,00-46.0000N,118-57.3000E,56,29.596,33.7327
346,2014/11/16,2:56:00,00-46.1100N,118-57.4800E,56,29.642,33.7328
347,2014/11/16,2:57:00,00-46.2300N,118-57.6400E,54,29.705,33.7336
348,2014/11/16,2:58:00,00-46.3500N,118-57.8200E,56,29.713,33.7377
349,2014/11/16,2:59:00,00-46.4700N,118-57.9900E,55,29.732,33.7406
350,2014/11/16,3:00:00,00-46.5900N,118-58.1600E,52,29.747,33.7417
351,2014/11/16,3:01:00,00-46.7200N,118-58.3200E,51,29.742,33.7412
352,2014/11/16,3:02:00,00-46.8500N,118-58.4900E,53,29.643,33.7421
353,2014/11/16,3:03:00,00-46.9700N,118-58.6500E,54,29.623,33.7473
354,2014/11/16,3:04:00,00-47.0900N,118-58.8200E,53,29.65,33.7463
355,2014/11/16,3:05:00,00-47.2200N,118-58.9900E,52,29.485,33.7433
356,2014/11/16,3:06:00,00-47.3400N,118-59.1500E,52,29.435,33.7373
357,2014/11/16,3:07:00,00-47.4700N,118-59.3200E,53,29.376,33.7329
358,2014/11/16,3:08:00,00-47.6000N,118-59.4900E,53,29.35,33.7308
359,2014/11/16,3:09:00,00-47.7200N,118-59.6500E,52,29.391,33.72
360,2014/11/16,3:10:00,00-47.8500N,118-59.8100E,51,29.391,33.7239
361,2014/11/16,3:11:00,00-47.9800N,118-59.9800E,53,29.389,33.7202
362,2014/11/16,3:12:00,00-48.1000N,119-00.1500E,56,29.515,33.7155
363,2014/11/16,3:13:00,00-48.2200N,119-00.3200E,55,29.45,33.7276
364,2014/11/16,3:14:00,00-48.3400N,119-00.4900E,52,29.473,33.7281
365,2014/11/16,3:15:00,00-48.4800N,119-00.6500E,50,29.458,33.7313
366,2014/11/16,3:16:00,00-48.6100N,119-00.8200E,51,29.431,33.7315
367,2014/11/16,3:17:00,00-48.7400N,119-00.9900E,54,29.405,33.7178
368,2014/11/16,3:18:00,00-48.8600N,119-01.1600E,54,29.413,33.7124
369,2014/11/16,3:19:00,00-48.9800N,119-01.3300E,53,29.452,33.7132
370,2014/11/16,3:20:00,00-49.1100N,119-01.5000E,51,29.506,33.7218
371,2014/11/16,3:21:00,00-49.2400N,119-01.6600E,50,29.519,33.7274
372,2014/11/16,3:22:00,00-49.3800N,119-01.8300E,50,29.521,33.7242
373,2014/11/16,3:23:00,00-49.5100N,119-01.9900E,51,29.49,33.7227
374,2014/11/16,3:24:00,00-49.6400N,119-02.1500E,50,29.628,33.7259
375,2014/11/16,3:25:00,00-49.7700N,119-02.3100E,49,29.657,33.7253
376,2014/11/16,3:26:00,00-49.9100N,119-02.4700E,49,29.669,33.7248
377,2014/11/16,3:27:00,00-50.0400N,119-02.6200E,49,29.624,33.7255
378,2014/11/16,3:28:00,00-50.1800N,119-02.7800E,49,29.562,33.7234
379,2014/11/16,3:29:00,00-50.3100N,119-02.9400E,50,29.588,33.7239
380,2014/11/16,3:30:00,00-50.4500N,119-03.1000E,49,29.685,33.7298
381,2014/11/16,3:31:00,00-50.5800N,119-03.2600E,49,29.716,33.7298
382,2014/11/16,3:32:00,00-50.7200N,119-03.4100E,48,29.795,33.7318
383,2014/11/16,3:33:00,00-50.8600N,119-03.5700E,48,29.829,33.7334
384,2014/11/16,3:34:00,00-50.9900N,119-03.7200E,49,29.851,33.7336
385,2014/11/16,3:35:00,00-51.1200N,119-03.8800E,49,29.846,33.7355
386,2014/11/16,3:36:00,00-51.2600N,119-04.0400E,49,29.781,33.7367
387,2014/11/16,3:37:00,00-51.3900N,119-04.2100E,51,29.76,33.7372
388,2014/11/16,3:38:00,00-51.5300N,119-04.3800E,51,29.786,33.7393
389,2014/11/16,3:39:00,00-51.6700N,119-04.5400E,48,29.939,33.7406
390,2014/11/16,3:40:00,00-51.8100N,119-04.7000E,49,29.99,33.7431
391,2014/11/16,3:41:00,00-51.9400N,119-04.8600E,51,30.002,33.742
392,2014/11/16,3:42:00,00-52.0700N,119-05.0200E,52,29.958,33.7336
393,2014/11/16,3:43:00,00-52.1900N,119-05.1800E,50,29.897,33.7314
394,2014/11/16,3:44:00,00-52.3300N,119-05.3400E,50,29.812,33.7086
395,2014/11/16,3:45:00,00-52.4700N,119-05.4900E,42,29.748,33.6512
396,2014/11/16,3:46:00,00-52.6300N,119-05.6100E,34,29.757,33.5857
397,2014/11/16,3:47:00,00-52.8100N,119-05.7100E,28,29.812,33.5681
398,2014/11/16,3:48:00,00-52.9900N,119-05.8000E,29,29.883,33.6039
399,2014/11/16,3:49:00,00-53.1500N,119-05.9100E,35,29.861,33.6756
400,2014/11/16,3:50:00,00-53.3100N,119-06.0300E,37,29.777,33.7017
401,2014/11/16,3:51:00,00-53.4800N,119-06.1500E,34,29.658,33.6649